Regional Weather Roundup
Issued by NWS

Home | Current Version | Previous Version | Graphics & Text | Print | Product List | Glossary On
Versions: 1 2 3 4 5 6 7 8 9 10 11 12 13 14 15 16 17 18 19 20 21 22 23 24 25 26 27
000
ASUS45 KCYS 271310
RWRWY

WYOMING REGIONAL WEATHER ROUNDUP
NATIONAL WEATHER SERVICE CHEYENNE WY
700 AM MDT TUE SEP 27 2016

NOTE:  "FAIR" INDICATES FEW OR NO CLOUDS BELOW 12,000 FEET
WITH NO SIGNIFICANT WEATHER AND/OR OBSTRUCTIONS TO VISIBILITY.

WYZ001-271400-
YELLOWSTONE NATIONAL PARK

CITY           SKY/WX    TMP DP  RH WIND       PRES   REMARKS
LK YELLOWSTONE   N/A     29  29 100 NW3       30.43S
W YELLOWSTONE  NOT AVBL

$$
WYZ002>013-054>058-071-098>099-271400-
NORTHERN WYOMING

CITY           SKY/WX    TMP DP  RH WIND       PRES   REMARKS
JACKSON        CLEAR     34  34 100 N7        30.38R WCI  28
CODY           FAIR      45  41  86 W3        30.21S
GREYBULL       FAIR      45  43  93 E3        30.18S
WORLAND        FAIR      43  42  97 S5        30.18S
SHERIDAN       FAIR      44  38  79 CALM      30.11S
BUFFALO        FAIR      56  32  40 W8        30.17S
GILLETTE       FAIR      54  40  59 SE3       30.12F
HULETT         FAIR      46  41  81 SW6       30.14S
NEWCASTLE      FAIR      45  37  76 CALM      30.16S

$$
WYZ014>020-022>026-101>103-271400-
CENTRAL WYOMING

CITY           SKY/WX    TMP DP  RH WIND       PRES   REMARKS
BIG PINEY      FAIR      35  33  92 CALM      30.38S
PINEDALE       PTSUNNY   32  32 100 NW7       30.39S WCI  26
DUBOIS         FAIR      43  34  70 NW16      30.34S
LANDER         FAIR      45  35  68 E3        30.24F
RIVERTON       FAIR      45  40  82 W5        30.26S
CASPER         FAIR      44  40  85 W12       30.23S
DOUGLAS        FAIR      36  34  92 CALM      30.22S

$$
WYZ021-027>030-104>119-271400-
SOUTHERN WYOMING

CITY           SKY/WX    TMP DP  RH WIND       PRES   REMARKS
EVANSTON       FAIR      44  33  65 CALM      30.36S
FORT BRIDGER   FAIR      45  36  71 W8        30.38S
ROCK SPRINGS   FAIR      42  39  89 SE3       30.35S
DIXON          FAIR      36  33  87 CALM      30.39S
RAWLINS        FAIR      34  31  88 CALM      30.35S
SARATOGA       FAIR      36  34  93 S12G17    30.37F WCI  27
LARAMIE        FAIR      33  30  88 S7        30.35S WCI  27
CHEYENNE       FAIR      42  35  76 W10       30.27S
TORRINGTON     FAIR      40  37  89 CALM      30.18R
PINE BLUFFS    FAIR      36  34  93 MISG      30.24S

$$




USA.gov is the U.S. government's official web portal to all federal, state and local government web resources and services.